Home   Weather   Markham   Past weeks

Flag for Canada Past Weather in Markham, Ontario, Canada — Yesterday and Last 2 Weeks

Now
52 °F

Low clouds.


Feels Like: 49 °F
Forecast: 39 / 57 °F
Wind: 9 mph from South

Location: Toronto Buttonville

Current Time: Feb 23, 2017 at 7:01:31 am

Latest Report: Feb 23, 2017 at 6:00 am


Visibility: 8 mi

Pressure: 29.64 "Hg

Humidity: 94%

Dew Point: 50 °F

Location of MarkhamLocation

Past Weather in Markham — Graph

°F

Markham Temperature Yesterday

Maximum temperature yesterday: 45 °F (at 3:32 pm)
Minimum temperature yesterday: 37 °F (at 1:00 am)
Average temperature yesterday: 40 °F

High & Low Weather Summary for the Past Weeks

 TemperatureHumidityPressure
High54 °F (Feb 18, 1:00 pm)100% (Feb 21, 11:00 pm)30.40 "Hg (Feb 21, 11:00 pm)
Low9 °F (Feb 9, 5:00 am)42% (Feb 9, 2:00 pm)29.46 "Hg (Feb 15, 4:00 am)
Average30 °F76%29.88 "Hg
* Reported Feb 8 5:00 am — Feb 23 5:00 am, Markham, Weather by CustomWeather, © 2017

Note: Actual official high and low records may vary slightly from our data, if they occured in-between our weather recording intervals... More about our weather records

Advertising

Markham Weather History for the Previous 24 Hours

Scroll right to see more
 ConditionsComfort  
Time TempWeatherWind HumidityBarometerVisibility
5:00 am
Thu, Feb 23
52 °FLow clouds.8 mph88%29.65 "Hg8 mi
4:00 am52 °FLow clouds.8 mph94%29.66 "Hg8 mi
3:00 am52 °FPartly cloudy.7 mph94%29.68 "Hg10 mi
2:00 am50 °FPassing clouds.6 mph94%29.69 "Hg8 mi
1:26 am48 °FFog.3 mph94%29.70 "Hg3 mi
1:00 am46 °FFog.7 mph100%29.69 "Hg3 mi
12:00 am45 °FFog.3 mph100%29.72 "Hg3 mi
11:00 pm
Wed, Feb 22
43 °FFog.2 mph93%29.73 "Hg3 mi
10:00 pm43 °FFog.No wind87%29.76 "Hg3 mi
9:27 pm41 °FFog.5 mph93%29.76 "Hg3 mi
9:00 pm41 °FFog.2 mph93%29.78 "Hg3 mi
8:00 pm41 °FFog.5 mph93%29.78 "Hg3 mi
7:00 pm41 °FFog.5 mph93%29.79 "Hg4 mi
6:13 pm41 °FFog.3 mph100%29.79 "Hg5 mi
6:00 pm41 °FFog.6 mph100%29.78 "Hg2 mi
5:00 pm41 °FFog.5 mph100%29.80 "Hg1 mi
4:40 pm43 °FFog.7 mph93%29.80 "Hg1 mi
4:24 pm43 °FFog.8 mph93%29.80 "Hg2 mi
4:00 pm45 °FFog.9 mph87%29.81 "Hg5 mi
3:32 pm45 °FPartly sunny.8 mph93%29.81 "Hg8 mi
3:00 pm43 °FPartly sunny.5 mph100%29.82 "Hg7 mi
2:52 pm43 °FPartly sunny.7 mph100%29.82 "Hg7 mi
2:00 pm43 °FFog.7 mph100%29.83 "Hg5 mi
1:29 pm43 °FFog.5 mph100%29.85 "Hg1 mi
1:04 pm43 °FFog.6 mph100%29.86 "Hg1 mi
12:00 pm43 °FFog.7 mph93%29.89 "Hg0 mi
11:34 am41 °FDrizzle. Fog.6 mph100%29.89 "Hg1 mi
11:00 am41 °FDrizzle. Fog.6 mph100%29.90 "Hg0 mi
10:39 am41 °FDrizzle. Fog.2 mph100%29.90 "Hg0 mi
10:00 am39 °FDrizzle. Fog.No wind100%29.91 "Hg0 mi
9:25 am39 °FDrizzle. Fog.3 mph93%29.90 "Hg0 mi
9:00 am37 °FFog.2 mph100%29.92 "Hg0 mi
8:22 am37 °FFog.3 mph100%29.93 "Hg0 mi
7:25 am37 °FFog.No wind100%29.94 "Hg0 mi
7:00 am37 °FFog.No wind93%29.93 "Hg0 mi
Weather by CustomWeather, © 2017

See weather overviewHow to use our weather pages